| time (UTC) | temp C | wind direction | speed KPH | gust KPH | rain 1hr cm | rain 24hr cm | rain mn cm | humidity % | barometer mb |
| 20260507050843 | 6 | 357 | 4.8 | 11.3 | 0.00 | 1.17 | 0.00 | 93 | 1011.7 |
| 20260507050343 | 6 | 299 | 4.8 | 11.3 | 0.00 | 1.17 | 0.00 | 93 | 1011.7 |
| 20260507045845 | 6 | 12 | 4.8 | 12.9 | 0.00 | 1.19 | 0.00 | 93 | 1011.7 |
| 20260507045344 | 6 | 332 | 4.8 | 12.9 | 0.00 | 1.19 | 0.00 | 94 | 1011.8 |
| 20260507044844 | 6 | 303 | 4.8 | 11.3 | 0.00 | 1.22 | 0.00 | 94 | 1011.7 |
| 20260507044344 | 6 | 314 | 4.8 | 11.3 | 0.00 | 1.22 | 0.00 | 94 | 1011.7 |
| 20260507043843 | 6 | 353 | 4.8 | 9.7 | 0.00 | 1.24 | 0.00 | 95 | 1011.6 |
| 20260507043344 | 6 | 340 | 3.2 | 8.0 | 0.00 | 1.27 | 0.00 | 95 | 1011.5 |
| 20260507042844 | 6 | 358 | 3.2 | 11.3 | 0.00 | 1.27 | 0.00 | 95 | 1011.5 |
| 20260507042341 | 6 | 347 | 3.2 | 11.3 | 0.00 | 1.32 | 0.00 | 95 | 1011.6 |
| 20260507041842 | 6 | 4 | 3.2 | 8.0 | 0.00 | 1.32 | 0.00 | 96 | 1011.5 |
| 20260507041604 | 6 | 288 | 3.2 | 6.4 | 0.00 | 1.37 | 0.00 | 97 | 1011.5 |
| 20260507040842 | 6 | 54 | 3.2 | 6.4 | 0.00 | 1.37 | 0.00 | 97 | 1011.4 |
| 20260507040342 | 5 | 321 | 3.2 | 9.7 | 0.00 | 1.37 | 0.00 | 98 | 1011.5 |
| 20260507035841 | 5 | 1 | 4.8 | 9.7 | 0.00 | 1.37 | 1.37 | 98 | 1011.5 |
| 20260507035343 | 5 | 14 | 3.2 | 8.0 | 0.00 | 1.37 | 1.37 | 99 | 1011.4 |
| 20260507034842 | 5 | 314 | 3.2 | 6.4 | 0.00 | 1.42 | 1.37 | 99 | 1011.5 |
| 20260507034341 | 5 | 0 | 3.2 | 6.4 | 0.00 | 1.42 | 1.37 | 99 | 1011.4 |
| 20260507033843 | 5 | 313 | 3.2 | 6.4 | 0.00 | 1.45 | 1.37 | 99 | 1011.4 |
| 20260507033342 | 5 | 0 | 3.2 | 9.7 | 0.00 | 1.45 | 1.37 | 99 | 1011.3 |
| 20260507032838 | 5 | 318 | 3.2 | 9.7 | 0.00 | 1.45 | 1.37 | 99 | 1011.1 |
| 20260507032603 | 5 | 0 | 1.6 | 4.8 | 0.00 | 1.45 | 1.37 | 99 | 1011.1 |
| 20260507031837 | 5 | 329 | 1.6 | 4.8 | 0.00 | 1.45 | 1.37 | 99 | 1011.1 |
| 20260507031337 | 5 | 321 | 1.6 | 4.8 | 0.00 | 1.45 | 1.37 | 99 | 1011.1 |
| 20260507030836 | 5 | 288 | 3.2 | 6.4 | 0.00 | 1.45 | 1.37 | 99 | 1011.1 |
| 20260507030337 | 5 | 345 | 3.2 | 6.4 | 0.00 | 1.47 | 1.37 | 99 | 1011.0 |
| 20260507025840 | 5 | 322 | 1.6 | 6.4 | 0.00 | 1.50 | 1.37 | 99 | 1011.0 |
| 20260507025337 | 5 | 0 | 1.6 | 6.4 | 0.00 | 1.50 | 1.37 | 99 | 1011.1 |
| 20260507024836 | 6 | 322 | 3.2 | 6.4 | 0.00 | 1.50 | 1.37 | 99 | 1011.3 |
| 20260507024559 | 6 | 303 | 3.2 | 6.4 | 0.00 | 1.52 | 1.37 | 99 | 1011.1 |
| 20260507023836 | 6 | 287 | 1.6 | 8.0 | 0.00 | 1.52 | 1.37 | 99 | 1011.1 |
| 20260507023600 | 6 | 332 | 3.2 | 9.7 | 0.00 | 1.52 | 1.37 | 98 | 1011.1 |
| 20260507022833 | 6 | 341 | 3.2 | 11.3 | 0.00 | 1.55 | 1.37 | 98 | 1011.1 |
| 20260507022335 | 6 | 344 | 4.8 | 12.9 | 0.00 | 1.60 | 1.37 | 98 | 1011.2 |
| 20260507022055 | 6 | 347 | 6.4 | 12.9 | 0.00 | 1.60 | 1.37 | 98 | 1011.1 |
| 20260507021335 | 6 | 32 | 6.4 | 14.5 | 0.00 | 1.63 | 1.37 | 98 | 1011.1 |
| 20260507020835 | 6 | 4 | 6.4 | 14.5 | 0.00 | 1.65 | 1.37 | 98 | 1011.2 |
| 20260507020335 | 6 | 323 | 4.8 | 11.3 | 0.00 | 1.65 | 1.37 | 97 | 1011.3 |
| 20260507015835 | 6 | 302 | 4.8 | 11.3 | 0.00 | 1.65 | 1.37 | 97 | 1011.3 |
| 20260507015335 | 6 | 350 | 4.8 | 8.0 | 0.00 | 1.65 | 1.37 | 97 | 1011.1 |
| 20260507015054 | 6 | 11 | 4.8 | 11.3 | 0.00 | 1.65 | 1.37 | 97 | 1011.0 |
| 20260507014334 | 6 | 340 | 4.8 | 11.3 | 0.00 | 1.65 | 1.37 | 97 | 1011.1 |
| 20260507013834 | 6 | 12 | 4.8 | 11.3 | 0.00 | 1.65 | 1.37 | 96 | 1011.0 |
| 20260507013333 | 7 | 334 | 6.4 | 14.5 | 0.03 | 1.65 | 1.37 | 96 | 1011.1 |
| 20260507012831 | 7 | 335 | 6.4 | 14.5 | 0.03 | 1.68 | 1.37 | 96 | 1011.1 |
| 20260507012328 | 7 | 12 | 6.4 | 14.5 | 0.03 | 1.68 | 1.37 | 96 | 1011.0 |
| 20260507012052 | 7 | 359 | 4.8 | 11.3 | 0.03 | 1.68 | 1.37 | 97 | 1010.8 |
| 20260507011328 | 7 | 4 | 4.8 | 9.7 | 0.03 | 1.73 | 1.37 | 97 | 1010.8 |
| 20260507010829 | 7 | 33 | 3.2 | 6.4 | 0.03 | 1.75 | 1.37 | 98 | 1010.8 |
| 20260507010330 | 7 | 347 | 3.2 | 6.4 | 0.03 | 1.78 | 1.37 | 97 | 1010.7 |
| 20260507010048 | 7 | 347 | 1.6 | 4.8 | 0.03 | 1.78 | 1.37 | 97 | 1010.6 |
| 20260507005329 | 7 | 0 | 1.6 | 3.2 | 0.03 | 1.83 | 1.37 | 97 | 1010.3 |
| 20260507004830 | 7 | 96 | 1.6 | 6.4 | 0.03 | 1.85 | 1.37 | 96 | 1010.4 |
| 20260507004330 | 7 | 0 | 3.2 | 6.4 | 0.03 | 1.88 | 1.37 | 96 | 1010.3 |
| 20260507003831 | 7 | 18 | 3.2 | 6.4 | 0.03 | 1.93 | 1.37 | 95 | 1010.3 |
| 20260507003550 | 8 | 29 | 3.2 | 6.4 | 0.00 | 1.93 | 1.37 | 94 | 1010.3 |
| 20260507003044 | 8 | 323 | 1.6 | 4.8 | 0.00 | 1.93 | 1.37 | 92 | 1010.2 |
| 20260507002328 | 8 | 6 | 3.2 | 4.8 | 0.00 | 1.93 | 1.37 | 91 | 1010.1 |
| 20260507001827 | 8 | 338 | 3.2 | 4.8 | 0.00 | 1.93 | 1.35 | 90 | 1010.0 |
| 20260507001542 | 8 | 3 | 3.2 | 4.8 | 0.00 | 1.93 | 1.35 | 89 | 1010.0 |
| 20260507000826 | 8 | 13 | 1.6 | 4.8 | 0.00 | 1.93 | 1.35 | 89 | 1009.8 |
| 20260507000328 | 8 | 212 | 0.0 | 1.6 | 0.00 | 1.93 | 1.35 | 88 | 1009.7 |
| 20260506235827 | 8 | 0 | 0.0 | 1.6 | 0.00 | 1.93 | 1.35 | 88 | 1009.7 |
| 20260506235328 | 8 | 0 | 0.0 | 1.6 | 0.00 | 1.93 | 1.35 | 87 | 1009.6 |
| 20260506234828 | 8 | 37 | 0.0 | 3.2 | 0.00 | 1.93 | 1.35 | 87 | 1009.5 |
| 20260506234327 | 8 | 0 | 0.0 | 3.2 | 0.00 | 1.93 | 1.35 | 87 | 1009.6 |
| 20260506234048 | 8 | 164 | 0.0 | 4.8 | 0.00 | 1.96 | 1.35 | 87 | 1009.5 |
| 20260506233328 | 8 | 156 | 1.6 | 4.8 | 0.00 | 2.01 | 1.35 | 86 | 1009.4 |
| 20260506232829 | 8 | 272 | 1.6 | 4.8 | 0.00 | 2.06 | 1.35 | 86 | 1009.6 |
| 20260506232325 | 8 | 315 | 3.2 | 4.8 | 0.00 | 2.11 | 1.35 | 86 | 1009.5 |
| 20260506231825 | 8 | 296 | 3.2 | 3.2 | 0.00 | 2.13 | 1.35 | 86 | 1009.5 |
| 20260506231325 | 8 | 257 | 1.6 | 3.2 | 0.00 | 2.13 | 1.35 | 86 | 1009.4 |
| 20260506230825 | 8 | 226 | 0.0 | 3.2 | 0.00 | 2.13 | 1.35 | 85 | 1009.3 |
| 20260506230325 | 8 | 0 | 0.0 | 1.6 | 0.00 | 2.13 | 1.35 | 85 | 1009.2 |
| 20260506225826 | 8 | 0 | 0.0 | 3.2 | 0.00 | 2.13 | 1.35 | 85 | 1009.3 |
| 20260506225326 | 8 | 265 | 1.6 | 3.2 | 0.00 | 2.13 | 1.35 | 85 | 1009.3 |
| 20260506224826 | 8 | 285 | 1.6 | 3.2 | 0.00 | 2.13 | 1.35 | 85 | 1009.2 |
| 20260506224325 | 8 | 334 | 0.0 | 3.2 | 0.00 | 2.13 | 1.35 | 84 | 1009.1 |
| 20260506223825 | 8 | 0 | 1.6 | 4.8 | 0.00 | 2.13 | 1.35 | 84 | 1009.0 |
| 20260506223324 | 8 | 265 | 1.6 | 4.8 | 0.00 | 2.13 | 1.35 | 84 | 1009.1 |
| 20260506222823 | 8 | 350 | 1.6 | 4.8 | 0.00 | 2.13 | 1.35 | 85 | 1009.1 |
| 20260506222324 | 8 | 188 | 1.6 | 4.8 | 0.00 | 2.13 | 1.35 | 85 | 1008.9 |
| 20260506221825 | 8 | 0 | 1.6 | 4.8 | 0.00 | 2.13 | 1.35 | 85 | 1008.9 |
| 20260506221325 | 8 | 0 | 1.6 | 4.8 | 0.00 | 2.13 | 1.35 | 85 | 1009.0 |
| 20260506220823 | 8 | 191 | 1.6 | 4.8 | 0.00 | 2.13 | 1.35 | 84 | 1009.1 |
| 20260506220323 | 8 | 206 | 1.6 | 3.2 | 0.00 | 2.13 | 1.35 | 83 | 1009.1 |
| 20260506215823 | 8 | 234 | 0.0 | 3.2 | 0.00 | 2.13 | 1.35 | 84 | 1009.1 |
| 20260506215522 | 8 | 288 | 1.6 | 3.2 | 0.00 | 2.13 | 1.35 | 84 | 1009.3 |
| 20260506215411 | 8 | 16 | 0.0 | 3.2 | 0.00 | 2.13 | 1.35 | 84 | 1009.2 |
| 20260506214323 | 8 | 197 | 1.6 | 4.8 | 0.00 | 2.13 | 1.35 | 84 | 1009.2 |
| 20260506213824 | 8 | 288 | 1.6 | 4.8 | 0.00 | 2.13 | 1.35 | 84 | 1009.2 |
| 20260506213321 | 8 | 308 | 3.2 | 8.0 | 0.00 | 2.13 | 1.35 | 83 | 1009.1 |
| 20260506212821 | 8 | 0 | 3.2 | 8.0 | 0.00 | 2.13 | 1.35 | 83 | 1009.1 |
| 20260506212318 | 8 | 316 | 1.6 | 6.4 | 0.00 | 2.13 | 1.35 | 84 | 1009.1 |
| 20260506211819 | 8 | 326 | 3.2 | 6.4 | 0.00 | 2.13 | 1.35 | 83 | 1009.0 |
| 20260506211319 | 8 | 0 | 3.2 | 6.4 | 0.00 | 2.13 | 1.35 | 83 | 1009.0 |
| 20260506210814 | 8 | 333 | 1.6 | 4.8 | 0.00 | 2.13 | 1.35 | 82 | 1008.9 |
| 20260506210545 | 8 | 0 | 1.6 | 3.2 | 0.00 | 2.13 | 1.35 | 82 | 1008.8 |
| 20260506205815 | 8 | 0 | 1.6 | 6.4 | 0.00 | 2.13 | 1.35 | 84 | 1008.7 |
| 20260506205315 | 8 | 56 | 3.2 | 9.7 | 0.00 | 2.13 | 1.35 | 84 | 1008.9 |
| 20260506204815 | 8 | 297 | 4.8 | 9.7 | 0.00 | 2.13 | 1.35 | 84 | 1008.9 |
| 20260506204315 | 7 | 337 | 4.8 | 11.3 | 0.00 | 2.13 | 1.35 | 85 | 1009.0 |
| 20260506203813 | 7 | 322 | 4.8 | 11.3 | 0.00 | 2.13 | 1.35 | 85 | 1009.0 |
| 20260506203534 | 7 | 320 | 4.8 | 8.0 | 0.00 | 2.13 | 1.35 | 86 | 1009.0 |
| 20260506202814 | 7 | 332 | 4.8 | 9.7 | 0.00 | 2.13 | 1.35 | 86 | 1009.1 |
| 20260506202533 | 7 | 246 | 4.8 | 9.7 | 0.00 | 2.13 | 1.35 | 86 | 1009.0 |
| 20260506201814 | 7 | 19 | 4.8 | 9.7 | 0.00 | 2.13 | 1.35 | 87 | 1009.0 |
| 20260506201314 | 7 | 325 | 4.8 | 9.7 | 0.00 | 2.13 | 1.35 | 87 | 1009.0 |
| 20260506200814 | 7 | 324 | 3.2 | 8.0 | 0.00 | 2.13 | 1.35 | 87 | 1008.9 |
| 20260506200314 | 7 | 1 | 4.8 | 12.9 | 0.00 | 2.13 | 1.35 | 88 | 1008.9 |
| 20260506195814 | 7 | 45 | 4.8 | 12.9 | 0.00 | 2.13 | 1.35 | 87 | 1008.9 |
| 20260506195759 | 7 | 16 | 4.8 | 11.3 | 0.00 | 2.13 | 1.35 | 88 | 1008.7 |
| 20260506194814 | 7 | 42 | 6.4 | 11.3 | 0.00 | 2.13 | 1.35 | 88 | 1008.6 |
| 20260506194315 | 7 | 31 | 4.8 | 11.3 | 0.00 | 2.13 | 1.35 | 89 | 1008.7 |
| 20260506193815 | 7 | 310 | 4.8 | 11.3 | 0.00 | 2.13 | 1.35 | 89 | 1008.7 |
| 20260506193314 | 7 | 298 | 4.8 | 11.3 | 0.00 | 2.13 | 1.35 | 90 | 1008.8 |
| 20260506192811 | 7 | 332 | 4.8 | 11.3 | 0.00 | 2.13 | 1.35 | 91 | 1008.9 |
| 20260506192312 | 7 | 321 | 6.4 | 14.5 | 0.00 | 2.13 | 1.35 | 91 | 1008.9 |
| 20260506191810 | 7 | 343 | 6.4 | 14.5 | 0.00 | 2.13 | 1.35 | 90 | 1008.9 |
| 20260506191311 | 7 | 52 | 4.8 | 14.5 | 0.00 | 2.13 | 1.35 | 90 | 1008.9 |
| 20260506190811 | 7 | 316 | 4.8 | 14.5 | 0.00 | 2.13 | 1.35 | 92 | 1008.9 |
| 20260506190311 | 7 | 110 | 4.8 | 14.5 | 0.00 | 2.13 | 1.35 | 92 | 1008.9 |
| 20260506185812 | 7 | 3 | 6.4 | 14.5 | 0.00 | 2.13 | 1.35 | 94 | 1008.8 |
| 20260506185312 | 6 | 24 | 6.4 | 14.5 | 0.00 | 2.13 | 1.35 | 94 | 1008.8 |
| 20260506184811 | 6 | 28 | 6.4 | 14.5 | 0.00 | 2.13 | 1.35 | 95 | 1008.8 |
| 20260506184311 | 6 | 38 | 6.4 | 14.5 | 0.00 | 2.13 | 1.35 | 95 | 1008.8 |
| 20260506183811 | 6 | 27 | 6.4 | 14.5 | 0.00 | 2.13 | 1.35 | 96 | 1008.8 |
| 20260506183536 | 6 | 51 | 4.8 | 14.5 | 0.00 | 2.13 | 1.35 | 97 | 1008.8 |
| 20260506182809 | 6 | 353 | 4.8 | 14.5 | 0.00 | 2.13 | 1.35 | 97 | 1008.7 |
| 20260506182308 | 6 | 89 | 6.4 | 16.1 | 0.00 | 2.13 | 1.35 | 96 | 1008.8 |
| 20260506181808 | 6 | 58 | 4.8 | 16.1 | 0.00 | 2.13 | 1.35 | 96 | 1008.8 |
| 20260506181309 | 6 | 9 | 4.8 | 12.9 | 0.00 | 2.13 | 1.35 | 96 | 1008.9 |
| 20260506180810 | 6 | 353 | 6.4 | 12.9 | 0.00 | 2.13 | 1.35 | 96 | 1009.0 |
| 20260506180311 | 6 | 29 | 4.8 | 11.3 | 0.00 | 2.13 | 1.35 | 95 | 1008.9 |
| 20260506175810 | 6 | 52 | 6.4 | 14.5 | 0.00 | 2.13 | 1.35 | 96 | 1008.7 |
| 20260506175310 | 6 | 302 | 6.4 | 14.5 | 0.00 | 2.13 | 1.35 | 95 | 1008.5 |
| 20260506175028 | 7 | 13 | 4.8 | 14.5 | 0.00 | 2.13 | 1.35 | 95 | 1008.4 |
| 20260506174311 | 7 | 15 | 4.8 | 12.9 | 0.00 | 2.13 | 1.35 | 96 | 1008.4 |
| 20260506173806 | 7 | 47 | 4.8 | 12.9 | 0.00 | 2.13 | 1.35 | 96 | 1008.3 |
| 20260506173307 | 7 | 91 | 4.8 | 12.9 | 0.00 | 2.13 | 1.35 | 96 | 1008.1 |
| 20260506172803 | 6 | 69 | 6.4 | 16.1 | 0.00 | 2.13 | 1.35 | 96 | 1008.1 |
| 20260506172307 | 6 | 11 | 6.4 | 16.1 | 0.00 | 2.13 | 1.35 | 96 | 1008.0 |
| 20260506172027 | 6 | 12 | 4.8 | 14.5 | 0.00 | 2.13 | 1.35 | 97 | 1008.0 |
| 20260506171305 | 6 | 49 | 6.4 | 14.5 | 0.00 | 2.13 | 1.35 | 97 | 1008.0 |
| 20260506170806 | 6 | 50 | 6.4 | 14.5 | 0.00 | 2.13 | 1.35 | 96 | 1007.9 |
| 20260506170305 | 6 | 50 | 4.8 | 12.9 | 0.00 | 2.13 | 1.35 | 97 | 1008.1 |
| 20260506165806 | 6 | 342 | 6.4 | 12.9 | 0.00 | 2.13 | 1.35 | 98 | 1008.1 |
| 20260506165306 | 6 | 28 | 8.0 | 14.5 | 0.00 | 2.13 | 1.35 | 97 | 1008.0 |
| 20260506164806 | 6 | 22 | 6.4 | 14.5 | 0.00 | 2.13 | 1.35 | 98 | 1008.0 |
| 20260506164304 | 6 | 24 | 6.4 | 12.9 | 0.00 | 2.13 | 1.35 | 98 | 1007.8 |
| 20260506163802 | 6 | 57 | 6.4 | 11.3 | 0.00 | 2.13 | 1.35 | 99 | 1007.9 |
| 20260506163303 | 6 | 54 | 4.8 | 9.7 | 0.00 | 2.13 | 1.35 | 99 | 1007.9 |
| 20260506162805 | 6 | 12 | 4.8 | 12.9 | 0.00 | 2.13 | 1.35 | 99 | 1007.8 |
| 20260506162306 | 6 | 356 | 6.4 | 12.9 | 0.00 | 2.13 | 1.35 | 99 | 1007.8 |
| 20260506161803 | 6 | 352 | 6.4 | 14.5 | 0.00 | 2.13 | 1.35 | 99 | 1007.9 |
| 20260506161538 | 6 | 9 | 6.4 | 14.5 | 0.00 | 2.13 | 1.35 | 99 | 1007.9 |
| 20260506160803 | 6 | 38 | 6.4 | 12.9 | 0.00 | 2.13 | 1.35 | 100 | 1008.0 |
| 20260506160303 | 6 | 99 | 4.8 | 12.9 | 0.00 | 2.13 | 1.35 | 100 | 1008.0 |
| 20260506155803 | 6 | 13 | 4.8 | 12.9 | 0.00 | 2.13 | 1.35 | 100 | 1008.1 |
| 20260506155251 | 6 | 103 | 4.8 | 11.3 | 0.00 | 2.13 | 1.35 | 100 | 1008.0 |
| 20260506154751 | 6 | 18 | 6.4 | 11.3 | 0.00 | 2.13 | 1.35 | 100 | 1007.9 |
| 20260506154251 | 6 | 1 | 4.8 | 11.3 | 0.00 | 2.13 | 1.35 | 100 | 1008.0 |
| 20260506153748 | 6 | 43 | 4.8 | 12.9 | 0.00 | 2.13 | 1.35 | 100 | 1007.9 |
| 20260506153732 | 6 | 5 | 4.8 | 12.9 | 0.00 | 2.13 | 1.35 | 100 | 1008.0 |
| 20260506152745 | 6 | 14 | 4.8 | 11.3 | 0.00 | 2.13 | 1.35 | 100 | 1008.1 |
| 20260506152240 | 6 | 342 | 4.8 | 11.3 | 0.00 | 2.13 | 1.35 | 100 | 1008.0 |
| 20260506151734 | 6 | 340 | 4.8 | 9.7 | 0.00 | 2.13 | 1.35 | 100 | 1007.9 |
| 20260506151233 | 6 | 4 | 4.8 | 12.9 | 0.00 | 2.13 | 1.35 | 100 | 1007.9 |
| 20260506150736 | 6 | 18 | 6.4 | 12.9 | 0.00 | 2.13 | 1.35 | 100 | 1008.0 |
| 20260506150236 | 6 | 53 | 6.4 | 9.7 | 0.00 | 2.13 | 1.35 | 99 | 1008.0 |
| 20260506145736 | 6 | 24 | 3.2 | 9.7 | 0.00 | 2.13 | 1.35 | 99 | 1007.8 |
| 20260506145235 | 6 | 5 | 3.2 | 6.4 | 0.00 | 2.13 | 1.35 | 99 | 1007.8 |
| 20260506144734 | 6 | 26 | 1.6 | 4.8 | 0.00 | 2.13 | 1.35 | 100 | 1007.6 |
| 20260506144235 | 6 | 70 | 3.2 | 9.7 | 0.00 | 2.13 | 1.35 | 99 | 1007.5 |
| 20260506143726 | 6 | 75 | 4.8 | 14.5 | 0.00 | 2.13 | 1.35 | 99 | 1007.5 |
| 20260506143225 | 6 | 127 | 4.8 | 14.5 | 0.00 | 2.13 | 1.35 | 99 | 1007.5 |
| 20260506142725 | 6 | 32 | 4.8 | 12.9 | 0.00 | 2.13 | 1.35 | 99 | 1007.5 |
| 20260506142224 | 6 | 56 | 3.2 | 9.7 | 0.00 | 2.13 | 1.35 | 99 | 1007.4 |
| 20260506141722 | 6 | 28 | 4.8 | 8.0 | 0.00 | 2.13 | 1.35 | 99 | 1007.5 |
| 20260506141213 | 6 | 104 | 4.8 | 9.7 | 0.00 | 2.13 | 1.35 | 98 | 1007.5 |
| 20260506140713 | 6 | 91 | 3.2 | 9.7 | 0.00 | 2.13 | 1.35 | 99 | 1007.6 |
| 20260506140205 | 6 | 46 | 4.8 | 9.7 | 0.00 | 2.13 | 1.35 | 98 | 1007.6 |
| 20260506135653 | 6 | 78 | 4.8 | 9.7 | 0.00 | 2.13 | 1.35 | 98 | 1007.6 |
| 20260506135152 | 6 | 74 | 4.8 | 9.7 | 0.00 | 2.13 | 1.35 | 99 | 1007.6 |
| 20260506134650 | 6 | 32 | 3.2 | 9.7 | 0.00 | 2.13 | 1.35 | 99 | 1007.6 |
| 20260506134150 | 6 | 79 | 4.8 | 17.7 | 0.00 | 2.13 | 1.35 | 100 | 1007.6 |
| 20260506133637 | 6 | 0 | 6.4 | 17.7 | 0.03 | 2.13 | 1.35 | 99 | 1007.5 |
| 20260506133135 | 6 | 94 | 6.4 | 14.5 | 0.03 | 2.13 | 1.35 | 100 | 1007.4 |
| 20260506132637 | 6 | 118 | 6.4 | 14.5 | 0.03 | 2.13 | 1.35 | 100 | 1007.4 |
| 20260506132136 | 6 | 32 | 6.4 | 14.5 | 0.03 | 2.13 | 1.35 | 100 | 1007.4 |
| 20260506131634 | 6 | 101 | 3.2 | 9.7 | 0.03 | 2.13 | 1.35 | 100 | 1007.4 |
| 20260506131134 | 6 | 59 | 3.2 | 6.4 | 0.03 | 2.13 | 1.35 | 99 | 1007.4 |
| 20260506130633 | 6 | 73 | 4.8 | 8.0 | 0.05 | 2.13 | 1.35 | 99 | 1007.6 |
| 20260506130133 | 6 | 71 | 3.2 | 8.0 | 0.05 | 2.13 | 1.35 | 99 | 1007.6 |
| 20260506125636 | 6 | 30 | 3.2 | 4.8 | 0.08 | 2.13 | 1.35 | 99 | 1007.8 |
| 20260506125121 | 6 | 58 | 3.2 | 8.0 | 0.10 | 2.13 | 1.35 | 99 | 1007.7 |
| 20260506124606 | 6 | 84 | 6.4 | 14.5 | 0.10 | 2.13 | 1.35 | 99 | 1007.7 |
| 20260506124054 | 6 | 73 | 6.4 | 14.5 | 0.08 | 2.11 | 1.32 | 99 | 1007.6 |
| 20260506123551 | 6 | 83 | 3.2 | 6.4 | 0.08 | 2.11 | 1.32 | 99 | 1007.6 |
| 20260506123050 | 6 | 121 | 3.2 | 4.8 | 0.08 | 2.11 | 1.32 | 99 | 1007.7 |
| 20260506122551 | 6 | 80 | 3.2 | 4.8 | 0.08 | 2.11 | 1.32 | 99 | 1007.7 |
| 20260506122052 | 6 | 56 | 3.2 | 6.4 | 0.08 | 2.11 | 1.32 | 99 | 1007.6 |
| 20260506122035 | 6 | 85 | 3.2 | 6.4 | 0.08 | 2.11 | 1.32 | 99 | 1007.8 |
| 20260506121051 | 6 | 29 | 3.2 | 4.8 | 0.08 | 2.08 | 1.30 | 99 | 1007.7 |
| 20260506120551 | 6 | 24 | 3.2 | 6.4 | 0.08 | 2.08 | 1.30 | 99 | 1007.9 |
| 20260506120051 | 6 | 83 | 3.2 | 6.4 | 0.05 | 2.06 | 1.27 | 99 | 1007.7 |
| 20260506115551 | 6 | 98 | 4.8 | 14.5 | 0.05 | 2.06 | 1.27 | 99 | 1007.4 |
| 20260506115042 | 6 | 225 | 6.4 | 14.5 | 0.05 | 2.03 | 1.24 | 99 | 1007.5 |
| 20260506114542 | 6 | 133 | 8.0 | 14.5 | 0.08 | 2.03 | 1.24 | 99 | 1007.4 |
| 20260506114302 | 6 | 135 | 8.0 | 16.1 | 0.08 | 2.03 | 1.24 | 99 | 1007.2 |
| 20260506113543 | 6 | 161 | 8.0 | 16.1 | 0.10 | 2.03 | 1.24 | 99 | 1007.3 |
| 20260506113042 | 6 | 76 | 6.4 | 9.7 | 0.10 | 2.03 | 1.24 | 99 | 1007.2 |
| 20260506112808 | 6 | 196 | 4.8 | 9.7 | 0.10 | 2.03 | 1.24 | 99 | 1007.4 |
| 20260506112043 | 6 | 182 | 3.2 | 12.9 | 0.13 | 2.03 | 1.24 | 99 | 1007.4 |
| 20260506111543 | 6 | 103 | 4.8 | 12.9 | 0.13 | 2.03 | 1.22 | 99 | 1007.6 |
| 20260506111037 | 6 | 75 | 6.4 | 16.1 | 0.13 | 2.01 | 1.22 | 99 | 1007.6 |
| 20260506110537 | 6 | 75 | 6.4 | 16.1 | 0.15 | 2.01 | 1.22 | 99 | 1007.5 |
| 20260506110037 | 6 | 82 | 6.4 | 12.9 | 0.18 | 2.01 | 1.22 | 99 | 1007.5 |
| 20260506105535 | 6 | 96 | 6.4 | 12.9 | 0.18 | 1.98 | 1.19 | 99 | 1007.5 |
| 20260506105036 | 6 | 62 | 4.8 | 9.7 | 0.18 | 1.98 | 1.19 | 99 | 1007.5 |
| 20260506104534 | 6 | 108 | 4.8 | 9.7 | 0.20 | 1.98 | 1.17 | 99 | 1007.7 |
| 20260506104257 | 6 | 67 | 4.8 | 8.0 | 0.20 | 1.96 | 1.17 | 99 | 1007.8 |
| 20260506103535 | 6 | 25 | 4.8 | 8.0 | 0.23 | 1.96 | 1.17 | 99 | 1007.8 |
| 20260506103256 | 6 | 59 | 4.8 | 8.0 | 0.25 | 1.93 | 1.14 | 99 | 1007.8 |
| 20260506102536 | 6 | 35 | 3.2 | 8.0 | 0.25 | 1.93 | 1.14 | 99 | 1007.7 |
| 20260506102300 | 6 | 69 | 3.2 | 8.0 | 0.23 | 1.91 | 1.12 | 99 | 1007.7 |
| 20260506101535 | 6 | 124 | 3.2 | 8.0 | 0.20 | 1.88 | 1.09 | 99 | 1007.7 |
| 20260506101036 | 6 | 67 | 3.2 | 9.7 | 0.18 | 1.88 | 1.09 | 99 | 1007.6 |
| 20260506100535 | 6 | 79 | 3.2 | 9.7 | 0.18 | 1.85 | 1.07 | 99 | 1007.8 |
| 20260506100037 | 6 | 90 | 4.8 | 9.7 | 0.18 | 1.83 | 1.04 | 99 | 1007.5 |
| 20260506095535 | 6 | 60 | 4.8 | 11.3 | 0.18 | 1.80 | 1.02 | 99 | 1007.6 |
| 20260506095245 | 6 | 10 | 4.8 | 9.7 | 0.15 | 1.75 | 0.97 | 99 | 1007.3 |
| 20260506095130 | 6 | 77 | 4.8 | 11.3 | 0.15 | 1.78 | 0.99 | 99 | 1007.4 |
| 20260506094036 | 6 | 69 | 4.8 | 9.7 | 0.15 | 1.75 | 0.97 | 99 | 1007.1 |
| 20260506093532 | 6 | 0 | 4.8 | 16.1 | 0.15 | 1.73 | 0.94 | 99 | 1007.4 |
| 20260506093029 | 6 | 140 | 6.4 | 19.3 | 0.13 | 1.70 | 0.89 | 99 | 1007.1 |
| 20260506092529 | 6 | 88 | 8.0 | 19.3 | 0.13 | 1.68 | 0.89 | 99 | 1006.9 |
| 20260506092026 | 6 | 113 | 4.8 | 9.7 | 0.15 | 1.68 | 0.89 | 99 | 1006.9 |
| 20260506091524 | 6 | 87 | 4.8 | 11.3 | 0.15 | 1.68 | 0.89 | 99 | 1007.1 |
| 20260506091014 | 6 | 99 | 4.8 | 11.3 | 0.18 | 1.68 | 0.89 | 99 | 1007.3 |
| 20260506090734 | 6 | 67 | 4.8 | 9.7 | 0.18 | 1.65 | 0.86 | 99 | 1007.2 |
| 20260506090009 | 6 | 96 | 6.4 | 11.3 | 0.15 | 1.65 | 0.84 | 99 | 1007.2 |
| 20260506085509 | 6 | 107 | 6.4 | 14.5 | 0.15 | 1.63 | 0.84 | 99 | 1007.1 |
| 20260506085010 | 6 | 70 | 6.4 | 14.5 | 0.15 | 1.60 | 0.81 | 99 | 1007.2 |
| 20260506084509 | 6 | 65 | 6.4 | 14.5 | 0.15 | 1.60 | 0.81 | 99 | 1007.6 |
| 20260506084009 | 6 | 109 | 4.8 | 14.5 | 0.15 | 1.60 | 0.79 | 99 | 1007.6 |
| 20260506083509 | 6 | 121 | 6.4 | 8.0 | 0.15 | 1.57 | 0.79 | 99 | 1007.7 |
| 20260506083233 | 7 | 40 | 4.8 | 14.5 | 0.15 | 1.57 | 0.79 | 99 | 1008.0 |
| 20260506082457 | 7 | 79 | 4.8 | 14.5 | 0.15 | 1.55 | 0.76 | 99 | 1008.0 |
| 20260506081957 | 7 | 35 | 4.8 | 14.5 | 0.15 | 1.55 | 0.76 | 99 | 1008.1 |
| 20260506081457 | 7 | 75 | 4.8 | 11.3 | 0.15 | 1.52 | 0.74 | 99 | 1008.1 |
| 20260506080951 | 7 | 39 | 4.8 | 14.5 | 0.15 | 1.50 | 0.71 | 99 | 1008.1 |
| 20260506080451 | 7 | 87 | 4.8 | 14.5 | 0.15 | 1.50 | 0.71 | 99 | 1007.7 |
| 20260506073449 | 7 | 46 | 4.8 | 12.9 | 0.30 | 1.45 | 0.66 | 99 | 1007.6 |
| 20260506072948 | 7 | 90 | 6.4 | 12.9 | 0.30 | 1.42 | 0.64 | 99 | 1007.5 |
| 20260506072450 | 7 | 51 | 6.4 | 11.3 | 0.30 | 1.42 | 0.61 | 99 | 1007.6 |
| 20260506071951 | 7 | 51 | 4.8 | 11.3 | 0.30 | 1.40 | 0.61 | 99 | 1007.7 |
| 20260506071449 | 7 | 22 | 4.8 | 14.5 | 0.30 | 1.37 | 0.58 | 99 | 1007.9 |
| 20260506070946 | 7 | 275 | 4.8 | 14.5 | 0.30 | 1.37 | 0.58 | 99 | 1007.9 |
| 20260506070445 | 7 | 75 | 6.4 | 14.5 | 0.28 | 1.35 | 0.56 | 99 | 1007.6 |
| 20260506062441 | 8 | 37 | 3.2 | 9.7 | 0.08 | 1.09 | 0.30 | 99 | 1007.6 |
| 20260506062427 | 8 | 68 | 3.2 | 9.7 | 0.05 | 1.09 | 0.28 | 99 | 1007.6 |
| 20260506061439 | 8 | 91 | 3.2 | 9.7 | 0.08 | 1.09 | 0.28 | 99 | 1007.7 |
| 20260506060939 | 8 | 179 | 3.2 | 6.4 | 0.08 | 1.07 | 0.28 | 99 | 1007.9 |
| 20260506060440 | 8 | 72 | 3.2 | 6.4 | 0.08 | 1.07 | 0.28 | 99 | 1007.8 |